Regional Weather Roundup
Issued by NWS

Home | Current Version | Previous Version | Text Only | Print | Product List | Glossary Off
Versions: 1 2 3 4 5 6 7 8 9 10 11 12 13 14 15 16 17 18 19 20 21 22 23 24 25 26 27 28 29 30 31 32 33 34 35 36 37 38 39 40 41 42 43 44 45 46 47 48 49 50

000
ASUS45 KTFX 182119
RWRMT
MONTANA HOURLY WEATHER ROUNDUP
NATIONAL WEATHER SERVICE GREAT FALLS MT
319 PM MDT FRI APR 18 2014

NOTE: "FAIR" INDICATES FEW OR NO CLOUDS BELOW 12000 FEET WITH NO
SIGNIFICANT WEATHER AND/OR OBSTRUCTIONS TO VISIBILITY.

* THESE STATIONS ARE NOT UNDER NWS QUALITY CONTROL. THEY DO NOT
   REPORT WEATHER SUCH AS PRECIPITATION OR FOG.

MTZ001>007-043-182200-
WEST OF THE DIVIDE
CITY           SKY/WX    TMP DP  RH WIND       PRES   REMARKS
KALISPELL      CLOUDY    48  21  34 SW16G26   29.82R
MISSOULA       CLOUDY    48  25  41 NW21G26   29.92R
BUTTE          CLOUDY    37  19  48 NW17G25   29.87R WCI  27
MULLAN PASS    LGT SNOW  27  25  92 W8G21     29.89R VSB 3    WCI  19
* ESSEX        N/A       43  19  38 S4G15      N/A
* LINCOLN      N/A       43  16  34 SW8G22     N/A
* LOOKOUT PASS N/A       31  27  85 E9G17      N/A   WCI  23
* PLAINS APT   PTCLDY    48  25  41 W24G39    29.94R
* POLSON       N/A       50  23  35 W5G16      N/A
* SEELEY LAKE  N/A       45  19  35 NW11G22    N/A
* THOMP F APT  PTCLDY    50  37  61 S11G25     N/A
$$

MTZ008-052>055-182200-
SOUTHWEST MONTANA
CITY           SKY/WX    TMP DP  RH WIND       PRES   REMARKS
BOZEMAN        PTSUNNY   57  30  36 NW36G49   29.72R
DILLON         PTCLDY    57  12  17 W35G48    29.78R
W YELLOWSTONE  N/A       38  36  93 SW8G18     N/A   WCI  32
* THREE FORKS  PTCLDY    57  30  36 W25G32     N/A
* BOULDER HILL N/A       36  25  64 SE1G6      N/A
* MONIDA PASS  N/A       51   6  16 W24G32     N/A
* RAYNOLDS PAS N/A       40  20  45 SE24G32    N/A   WCI  30
* WHITEHALL    N/A       54  27  35 NW18G36    N/A
* WISE RIVER   N/A       39  31  73 NW20G33    N/A   WCI  29
$$

MTZ009>010-012-014-046-048-049-054-182200-
EAST SLOPES AND CENTRAL MONTANA
CITY           SKY/WX    TMP DP  RH WIND       PRES   REMARKS
CUT BANK       PTCLDY    48  21  34 W39G49    29.66R
GREAT FALLS    PTSUNNY   54  12  19 W30G40    29.71S
HELENA         PTSUNNY   48  19  32 W25G38    29.81F
MALMSTROM AFB  CLOUDY    50  16  26 S24G41    29.69S
* CONRAD       SUNNY     52  18  26 SW25G39    N/A
* DEARBORN     N/A       50  11  21 S28G40     N/A
* EAST GLACIER N/A       35  25  67 W37G58     N/A   WCI  20
* MONARCH      N/A       34  26  73 W26G32     N/A   WCI  21
* PENDROY      N/A       47  18  31 W32G42     N/A
* ROGERS PASS  N/A       39  14  36 E8G18      N/A   WCI  33
* SAINT MARY   N/A       35  26  70 SW13G29    N/A   WCI  26
* SWEET GRASS  N/A       47  20  34 SW37G47    N/A
* WHITE SULPH  N/A       35  29  79 NW21G40    N/A   WCI  24
$$

MTZ011-013-016-021-035-040-045-047-050-051-182200-
NORTH CENTRAL MONTANA
CITY           SKY/WX    TMP DP  RH WIND       PRES   REMARKS
HAVRE          PTSUNNY   61  30  31 W18       29.61S
LEWISTOWN      PTSUNNY   54  28  37 NW13      29.67F
* CHINOOK      PTCLDY    57  34  42 NW5       29.62R
* FORT BENTON  PTCLDY    52  12  20 SW18G31   29.72R
* MALTA APT    CLOUDY    57  37  47 S8        29.62S
* CHESTER      N/A       52  11  19 W20G36     N/A
* DENTON       N/A       54  25  33 W26G35     N/A
* GEYSER       N/A       40  26  57 W26G40     N/A   WCI  29
* JUDITH GAP   N/A       54  25  33 SW23G32    N/A
* LOMA         N/A       57  15  19 SW33G40    N/A
$$

MTZ017>020-022>027-061-062-182200-
NORTHEAST MONTANA
CITY           SKY/WX    TMP DP  RH WIND       PRES   REMARKS
GLASGOW        LGT RAIN  46  43  89 E8        29.65F
GLENDIVE       CLOUDY    64  37  37 CALM      29.62S
JORDAN         CLOUDY    52  46  80 S6        29.68R
SIDNEY         CLOUDY    59  36  42 SE18      29.66R
WOLF POINT     LGT RAIN  50  43  77 W10       29.68R
* BEAVER HILL  N/A       62  38  41 E26G32     N/A
* CIRCLE       N/A       54  45  72 N/A        N/A
* LINDSAY DVD  N/A       59  35  41 W17        N/A
* NAVAJO       N/A       47  31  54 SE15G22    N/A
* SACO         N/A       47  41  80 E6         N/A
* SCOBEY APT   CLOUDY    46  32  58 SE8       29.68S
$$

MTZ028>042-056>058-182200-
SOUTHCENTRAL AND SOUTHEAST MONTANA
CITY           SKY/WX    TMP DP  RH WIND       PRES   REMARKS
BAKER          PTSUNNY   70  39  32 SE21G31   29.62F
BILLINGS       CLOUDY    57  36  46 W12       29.70F
LIVINGSTON     PTSUNNY   57  36  46 SW22G29   29.69F
MILES CITY     CLOUDY    63  39  41 NW25G32   29.66R
* EKALAKA APT  PTSUNNY   68  36  31 SE12G21   29.64F
* LAUREL APT   CLOUDY    57  36  46 SW5        N/A
* ROUNDUP APT  CLOUDY    54  37  53 S6         N/A
* HYSHAM       N/A       51  39  64 NW12G24    N/A
* LAME DEER    N/A       58  36  44 NW16G25    N/A
* REED POINT   N/A       60  36  41 W10G18     N/A
* ROSCOE HILL  N/A       60  21  22 W10G20     N/A
$$

REGIONAL REPORTS...DAKOTAS
CITY           SKY/WX    TMP DP  RH WIND       PRES   REMARKS
WILLISTON      CLOUDY    55  32  42 SE16G31   29.66F
DICKINSON      PTSUNNY   59  36  42 SE22G33   29.67F
CROSBY         PTCLDY    50  28  43 SE29G38   29.70F
TIOGA          PTCLDY    52  30  43 SE25G38   29.74F
WATFORD CITY   PTCLDY    54  32  43 SE21G37   29.65F
BISMARCK       PTSUNNY   61  36  39 SE31G38   29.78F
GRAND FORKS    PTSUNNY   54  30  40 SE26G32   30.10F
FARGO          PTSUNNY   54  28  37 SE26G40   30.09F
BUFFALO SD     PTSUNNY   66  39  37 SE23      29.58F
RAPID CITY     CLOUDY    75  36  24 S23G31    29.66F
$$

REGIONAL REPORTS...WYOMING/IDAHO/WASHINGTON
CITY           SKY/WX    TMP DP  RH WIND       PRES   REMARKS
GILLETTE       CLOUDY    72  30  21 SW29G36   29.66S
SHERIDAN       CLOUDY    63  39  41 NW23      29.70S
CODY           CLOUDY    57  36  46 W17G25    29.74F
YELLOWSTONE LA CLOUDY    37  28  70 VRB7G21   29.93S WCI  32
SALMON         PTCLDY    55  23  29 W15G20    29.85R
MULLAN PASS    LGT SNOW  27  25  92 W8G21     29.89S VSB 3    WCI  19
SAND POINT     CLOUDY    46  28  50 SW12G18   29.91R
SPOKANE        PTSUNNY   52  27  38 SW24G32   29.95R
$$

REGIONAL REPORTS...ALBERTA
CITY           SKY/WX    TMP DP  RH WIND       PRES   REMARKS
CALGARY        LGT SNOW  32  30  92 N13G23    29.62R VSB 3/4  WCI  22
LETHBRIDGE     CLOUDY    48  23  37 W31G53    29.57S
MEDICINE HAT   PTSUNNY   57  25  29 SW21G30   29.56F
EDMONTON       FOG       32  28  85 N10       29.72R WCI  24
WATERTON GATE  N/A       41  25  53 SW29G45    N/A
CARDSTON       N/A       45  25  45 W23G33     N/A
MILK RIVER     N/A       48  21  34 W28G36     N/A
$$

REGIONAL REPORTS...SASKATCHEWAN
CITY           SKY/WX    TMP DP  RH WIND       PRES   REMARKS
SWIFT CURRENT  PTSUNNY   45  41  86 S15G21    29.58F
REGINA         RAINSNOW  36  32  85 SE22G31   29.75F WCI  25
VAL MARIE      N/A       48  36  63 S12        N/A
ASSINIBOIA     N/A       39  37  93 SE14G21    N/A   WCI  31
CORONACH       N/A       45  36  71 SE13G18    N/A

$$




USA.gov is the U.S. government's official web portal to all federal, state and local government web resources and services.